DAL2498 KATL-KEWR

Flight info

Callsign DAL2498
Flight time 1h 40m
Altitude 35000
Route PLMMR3 BURGG Q22 UMBRE QUART PHLBO4
Aircraft B738/M-VGDW/C

Departure

Time 2026-05-06 23:32
Airport Hartsfield Jackson Atlanta International Airport (KATL)

Arrival

Time 2026-05-07 01:12
Airport Newark Liberty International Airport (KEWR)
Time Latitude Longitude Altitude Speed Heading
2026-05-06 23:05 33.64298 -84.43538 1005 ft 0 kts 269°
2026-05-06 23:19 33.64299 -84.43513 1005 ft 4 kts 262°
2026-05-06 23:19 33.64306 -84.43482 1005 ft 4 kts 242°
2026-05-06 23:19 33.64321 -84.43460 1005 ft 4 kts 193°
2026-05-06 23:19 33.64328 -84.43458 1005 ft 1 kts 180°
2026-05-06 23:22 33.64320 -84.43458 1005 ft 3 kts 180°
2026-05-06 23:23 33.64286 -84.43458 1005 ft 7 kts 180°
2026-05-06 23:23 33.64234 -84.43459 1005 ft 8 kts 180°
2026-05-06 23:23 33.64176 -84.43460 1005 ft 8 kts 181°
2026-05-06 23:23 33.64119 -84.43459 1005 ft 9 kts 180°
2026-05-06 23:24 33.64040 -84.43453 1005 ft 13 kts 168°
2026-05-06 23:24 33.63950 -84.43428 1005 ft 13 kts 165°
2026-05-06 23:24 33.63864 -84.43398 1005 ft 13 kts 166°
2026-05-06 23:24 33.63779 -84.43393 1005 ft 12 kts 180°
2026-05-06 23:25 33.63700 -84.43388 1005 ft 11 kts 161°
2026-05-06 23:25 33.63663 -84.43313 1005 ft 11 kts 91°
2026-05-06 23:25 33.63663 -84.43221 1005 ft 12 kts 90°
2026-05-06 23:25 33.63663 -84.43114 1005 ft 14 kts 90°
2026-05-06 23:26 33.63663 -84.42997 1005 ft 14 kts 90°
2026-05-06 23:26 33.63663 -84.42884 1005 ft 13 kts 90°
2026-05-06 23:26 33.63662 -84.42776 1005 ft 13 kts 92°
2026-05-06 23:26 33.63655 -84.42672 1006 ft 12 kts 91°
2026-05-06 23:27 33.63654 -84.42569 1006 ft 12 kts 90°
2026-05-06 23:27 33.63653 -84.42465 1006 ft 13 kts 90°
2026-05-06 23:27 33.63653 -84.42355 1006 ft 14 kts 90°
2026-05-06 23:27 33.63654 -84.42241 1006 ft 13 kts 89°
2026-05-06 23:28 33.63625 -84.42140 1006 ft 13 kts 118°
2026-05-06 23:28 33.63584 -84.42047 1006 ft 13 kts 106°
2026-05-06 23:28 33.63581 -84.41942 1005 ft 13 kts 90°
2026-05-06 23:28 33.63581 -84.41822 1005 ft 16 kts 90°
2026-05-06 23:29 33.63581 -84.41669 1005 ft 19 kts 90°
2026-05-06 23:29 33.63580 -84.41510 1004 ft 19 kts 90°
2026-05-06 23:29 33.63581 -84.41356 1004 ft 18 kts 90°
2026-05-06 23:29 33.63581 -84.41208 1005 ft 17 kts 90°
2026-05-06 23:30 33.63580 -84.41065 1005 ft 17 kts 90°
2026-05-06 23:30 33.63581 -84.40941 1005 ft 8 kts 90°
2026-05-06 23:30 33.63541 -84.40907 1006 ft 8 kts 177°
2026-05-06 23:30 33.63489 -84.40909 1006 ft 7 kts 197°
2026-05-06 23:31 33.63471 -84.40966 1006 ft 8 kts 268°
2026-05-06 23:31 33.63471 -84.41181 1004 ft 59 kts 270°
2026-05-06 23:31 33.63470 -84.41958 1006 ft 125 kts 270°
2026-05-06 23:31 33.63468 -84.43225 1059 ft 174 kts 269°
2026-05-06 23:32 33.63479 -84.44702 1753 ft 177 kts 269°
2026-05-06 23:32 33.63474 -84.46157 2666 ft 170 kts 265°
2026-05-06 23:32 33.63316 -84.47566 3254 ft 178 kts 248°
2026-05-06 23:32 33.62759 -84.48971 3502 ft 196 kts 241°
2026-05-06 23:33 33.62130 -84.50446 3956 ft 202 kts 243°
2026-05-06 23:33 33.61475 -84.52011 4245 ft 218 kts 243°
2026-05-06 23:33 33.60781 -84.53690 4521 ft 235 kts 243°
2026-05-06 23:33 33.60034 -84.55500 4998 ft 246 kts 243°
2026-05-06 23:34 33.59030 -84.57168 5702 ft 251 kts 221°
2026-05-06 23:34 33.57501 -84.58192 6462 ft 256 kts 202°
2026-05-06 23:34 33.55713 -84.58540 7113 ft 266 kts 186°
2026-05-06 23:34 33.53844 -84.58545 7761 ft 271 kts 184°
2026-05-06 23:35 33.51955 -84.58510 8480 ft 272 kts 185°
2026-05-06 23:35 33.50048 -84.58480 9158 ft 276 kts 183°
2026-05-06 23:35 33.48163 -84.57948 9784 ft 294 kts 159°
2026-05-06 23:35 33.46540 -84.56367 10351 ft 314 kts 133°
2026-05-06 23:36 33.45569 -84.53896 10520 ft 348 kts 103°
2026-05-06 23:36 33.45438 -84.50912 10753 ft 368 kts 91°
2026-05-06 23:36 33.45527 -84.47800 11162 ft 379 kts 90°
2026-05-06 23:36 33.45607 -84.44628 11733 ft 383 kts 91°
2026-05-06 23:37 33.45631 -84.41433 12368 ft 385 kts 92°
2026-05-06 23:37 33.45620 -84.38215 12967 ft 389 kts 93°
2026-05-06 23:37 33.45823 -84.34968 13532 ft 398 kts 76°
2026-05-06 23:37 33.46977 -84.31948 14104 ft 401 kts 53°
2026-05-06 23:38 33.48815 -84.29457 14708 ft 400 kts 43°
2026-05-06 23:38 33.50783 -84.27087 15324 ft 402 kts 41°
2026-05-06 23:38 33.52774 -84.24727 15947 ft 404 kts 41°
2026-05-06 23:38 33.54779 -84.22345 16545 ft 407 kts 40°
2026-05-06 23:39 33.56791 -84.19936 17123 ft 411 kts 40°
2026-05-06 23:39 33.58818 -84.17492 17685 ft 415 kts 40°
2026-05-06 23:39 33.60853 -84.15020 18239 ft 418 kts 40°
2026-05-06 23:39 33.62901 -84.12523 18743 ft 421 kts 40°
2026-05-06 23:40 33.64967 -84.09998 19219 ft 425 kts 40°
2026-05-06 23:40 33.67046 -84.07454 19702 ft 429 kts 40°
2026-05-06 23:40 33.69139 -84.04889 20173 ft 432 kts 40°
2026-05-06 23:40 33.71251 -84.02300 20672 ft 435 kts 39°
2026-05-06 23:41 33.73378 -83.99691 21156 ft 439 kts 39°
2026-05-06 23:41 33.75523 -83.97059 21631 ft 442 kts 39°
2026-05-06 23:41 33.77680 -83.94409 22076 ft 446 kts 39°
2026-05-06 23:41 33.79856 -83.91735 22516 ft 449 kts 39°
2026-05-06 23:42 33.82048 -83.89038 22956 ft 453 kts 39°
2026-05-06 23:42 33.84261 -83.86314 23339 ft 457 kts 39°
2026-05-06 23:42 33.86489 -83.83567 23729 ft 460 kts 39°
2026-05-06 23:42 33.88732 -83.80798 24118 ft 463 kts 39°
2026-05-06 23:43 33.90980 -83.78022 24493 ft 464 kts 39°
2026-05-06 23:43 33.93237 -83.75233 24877 ft 466 kts 39°
2026-05-06 23:43 33.95500 -83.72420 25233 ft 470 kts 41°
2026-05-06 23:43 33.97626 -83.69376 25564 ft 477 kts 46°
2026-05-06 23:44 33.99615 -83.66149 25911 ft 482 kts 49°
2026-05-06 23:44 34.01554 -83.62850 26251 ft 484 kts 49°
2026-05-06 23:44 34.03502 -83.59520 26583 ft 486 kts 49°
2026-05-06 23:44 34.05467 -83.56199 26924 ft 489 kts 49°
2026-05-06 23:45 34.07471 -83.52866 27095 ft 493 kts 49°
2026-05-06 23:45 34.09498 -83.49530 27539 ft 492 kts 48°
2026-05-06 23:45 34.11531 -83.46202 27904 ft 493 kts 48°
2026-05-06 23:45 34.13573 -83.42866 28206 ft 496 kts 48°
2026-05-06 23:46 34.15626 -83.39511 28480 ft 499 kts 48°
2026-05-06 23:46 34.17693 -83.36128 28772 ft 501 kts 48°
2026-05-06 23:46 34.19760 -83.32737 29062 ft 503 kts 49°
2026-05-06 23:46 34.21837 -83.29324 29356 ft 505 kts 49°
2026-05-06 23:47 34.23918 -83.25901 29636 ft 507 kts 49°
2026-05-06 23:47 34.26008 -83.22458 29895 ft 509 kts 49°
2026-05-06 23:47 34.28110 -83.18994 30128 ft 511 kts 49°
2026-05-06 23:47 34.30216 -83.15521 30363 ft 513 kts 49°
2026-05-06 23:48 34.32329 -83.12041 30621 ft 514 kts 49°
2026-05-06 23:48 34.34426 -83.08610 30888 ft 514 kts 48°
2026-05-06 23:48 34.36582 -83.05092 31207 ft 513 kts 48°
2026-05-06 23:48 34.38706 -83.01627 31504 ft 513 kts 48°
2026-05-06 23:49 34.40830 -82.98156 31780 ft 513 kts 48°
2026-05-06 23:49 34.42956 -82.94676 32048 ft 513 kts 48°
2026-05-06 23:49 34.45077 -82.91198 32358 ft 513 kts 48°
2026-05-06 23:49 34.47195 -82.87719 32651 ft 513 kts 48°
2026-05-06 23:50 34.49309 -82.84242 32917 ft 513 kts 48°
2026-05-06 23:50 34.53537 -82.77280 33442 ft 514 kts 48°
2026-05-06 23:50 34.55655 -82.73788 33687 ft 514 kts 48°
2026-05-06 23:51 34.57773 -82.70293 33934 ft 515 kts 48°
2026-05-06 23:51 34.59894 -82.66787 34114 ft 516 kts 48°
2026-05-06 23:51 34.62018 -82.63275 34277 ft 517 kts 48°
2026-05-06 23:51 34.64146 -82.59752 34460 ft 518 kts 48°
2026-05-06 23:52 34.66274 -82.56226 34683 ft 518 kts 47°
2026-05-06 23:52 34.68394 -82.52677 34882 ft 519 kts 48°
2026-05-06 23:52 34.70492 -82.49113 35054 ft 520 kts 48°
2026-05-06 23:52 34.72590 -82.45524 35231 ft 521 kts 48°
2026-05-06 23:53 34.74683 -82.41934 35386 ft 521 kts 48°
2026-05-06 23:53 34.76785 -82.38329 35571 ft 523 kts 47°
2026-05-06 23:53 34.81030 -82.31061 35770 ft 529 kts 47°
2026-05-06 23:54 34.83156 -82.27415 35996 ft 528 kts 47°
2026-05-06 23:54 34.85277 -82.23773 36205 ft 527 kts 47°
2026-05-06 23:54 34.87396 -82.20133 36392 ft 527 kts 47°
2026-05-06 23:54 34.89520 -82.16482 36542 ft 528 kts 47°
2026-05-06 23:55 34.91641 -82.12835 36695 ft 529 kts 46°
2026-05-06 23:55 34.93765 -82.09176 36867 ft 528 kts 46°
2026-05-06 23:55 34.95887 -82.05518 36980 ft 529 kts 46°
2026-05-06 23:55 34.98013 -82.01849 36973 ft 532 kts 46°
2026-05-06 23:56 35.02292 -81.94453 36986 ft 535 kts 46°
2026-05-06 23:56 35.06661 -81.87094 36977 ft 535 kts 44°
2026-05-06 23:57 35.11177 -81.79910 36973 ft 540 kts 43°
2026-05-06 23:57 35.15801 -81.72555 36992 ft 544 kts 44°
2026-05-06 23:58 35.19608 -81.66420 37003 ft 546 kts 44°
2026-05-06 23:58 35.24906 -81.57808 36989 ft 542 kts 44°
2026-05-06 23:59 35.28687 -81.51649 36934 ft 539 kts 44°
2026-05-06 23:59 35.33907 -81.43150 36950 ft 536 kts 44°
2026-05-07 00:00 35.38380 -81.35851 36962 ft 535 kts 44°
2026-05-07 00:00 35.42124 -81.29731 36982 ft 536 kts 44°
2026-05-07 00:01 35.46601 -81.22398 36980 ft 539 kts 44°
2026-05-07 00:01 35.51099 -81.15012 36990 ft 541 kts 44°
2026-05-07 00:02 35.55584 -81.07629 36987 ft 544 kts 44°
2026-05-07 00:02 35.60097 -81.00193 36972 ft 547 kts 44°
2026-05-07 00:03 35.64652 -80.92684 36975 ft 549 kts 44°
2026-05-07 00:03 35.69217 -80.85139 36981 ft 550 kts 44°
2026-05-07 00:04 35.73777 -80.77581 36964 ft 550 kts 44°
2026-05-07 00:04 35.78327 -80.70022 36952 ft 548 kts 44°
2026-05-07 00:05 35.82852 -80.62489 36941 ft 546 kts 44°
2026-05-07 00:05 35.87351 -80.54985 36953 ft 543 kts 44°
2026-05-07 00:06 35.91833 -80.47494 36941 ft 542 kts 44°
2026-05-07 00:06 35.96297 -80.40018 36940 ft 540 kts 44°
2026-05-07 00:07 36.00746 -80.32540 36933 ft 540 kts 44°
2026-05-07 00:07 36.05171 -80.25069 36943 ft 539 kts 44°
2026-05-07 00:08 36.09595 -80.17585 36938 ft 539 kts 44°
2026-05-07 00:08 36.14025 -80.10076 36944 ft 541 kts 44°
2026-05-07 00:09 36.18455 -80.02554 36953 ft 541 kts 44°
2026-05-07 00:09 36.22875 -79.95067 36949 ft 542 kts 44°
2026-05-07 00:10 36.27358 -79.87474 36952 ft 543 kts 44°
2026-05-07 00:10 36.31816 -79.79901 36988 ft 544 kts 44°
2026-05-07 00:11 36.36248 -79.72350 36947 ft 545 kts 44°
2026-05-07 00:11 36.40706 -79.64732 36924 ft 545 kts 44°
2026-05-07 00:12 36.45157 -79.57111 36921 ft 545 kts 44°
2026-05-07 00:12 36.49605 -79.49479 36918 ft 545 kts 44°
2026-05-07 00:13 36.54042 -79.41850 36908 ft 545 kts 44°
2026-05-07 00:13 36.58471 -79.34217 36938 ft 543 kts 44°
2026-05-07 00:14 36.62885 -79.26592 36928 ft 543 kts 44°
2026-05-07 00:14 36.67290 -79.18967 36926 ft 541 kts 45°
2026-05-07 00:15 36.71676 -79.11356 36925 ft 540 kts 45°
2026-05-07 00:15 36.76057 -79.03739 36911 ft 540 kts 44°
2026-05-07 00:16 36.80426 -78.96124 36911 ft 540 kts 44°
2026-05-07 00:16 36.84783 -78.88503 36916 ft 539 kts 45°
2026-05-07 00:17 36.89119 -78.80857 36912 ft 539 kts 45°
2026-05-07 00:17 36.93443 -78.73206 36926 ft 539 kts 45°
2026-05-07 00:18 36.97770 -78.65539 36925 ft 540 kts 45°
2026-05-07 00:18 37.02093 -78.57864 36926 ft 540 kts 45°
2026-05-07 00:19 37.06411 -78.50182 36922 ft 540 kts 45°
2026-05-07 00:19 37.10723 -78.42490 36913 ft 540 kts 45°
2026-05-07 00:20 37.15035 -78.34781 36947 ft 540 kts 45°
2026-05-07 00:20 37.19347 -78.27057 36920 ft 541 kts 45°
2026-05-07 00:21 37.23309 -78.18934 36920 ft 550 kts 52°
2026-05-07 00:21 37.26929 -78.10431 36903 ft 552 kts 53°
2026-05-07 00:22 37.30579 -78.01967 36902 ft 551 kts 52°
2026-05-07 00:22 37.34294 -77.93543 36932 ft 551 kts 52°
2026-05-07 00:23 37.38209 -77.85349 36900 ft 537 kts 41°
2026-05-07 00:23 37.40626 -77.81854 36914 ft 523 kts 33°
2026-05-07 00:23 37.43277 -77.78805 36934 ft 510 kts 25°
2026-05-07 00:24 37.46136 -77.76309 36921 ft 493 kts 17°
2026-05-07 00:24 37.49069 -77.74090 36929 ft 492 kts 17°
2026-05-07 00:24 37.54911 -77.69517 36973 ft 495 kts 18°
2026-05-07 00:25 37.60715 -77.64800 36927 ft 497 kts 19°
2026-05-07 00:25 37.66520 -77.60067 36914 ft 497 kts 19°
2026-05-07 00:26 37.72328 -77.55348 36908 ft 496 kts 19°
2026-05-07 00:26 37.78133 -77.50632 36913 ft 495 kts 19°
2026-05-07 00:27 37.83927 -77.45923 36915 ft 495 kts 19°
2026-05-07 00:27 37.89720 -77.41204 36914 ft 495 kts 19°
2026-05-07 00:28 37.95504 -77.36482 36910 ft 495 kts 19°
2026-05-07 00:28 38.01295 -77.31748 36892 ft 496 kts 19°
2026-05-07 00:29 38.07091 -77.27008 36891 ft 496 kts 19°
2026-05-07 00:30 38.18694 -77.17487 36926 ft 496 kts 19°
2026-05-07 00:30 38.24501 -77.12708 36893 ft 497 kts 19°
2026-05-07 00:31 38.30296 -77.07888 36879 ft 501 kts 21°
2026-05-07 00:31 38.35940 -77.02563 36882 ft 507 kts 25°
2026-05-07 00:32 38.41523 -76.97044 36917 ft 508 kts 24°
2026-05-07 00:32 38.47135 -76.91561 36889 ft 508 kts 24°
2026-05-07 00:33 38.52734 -76.86146 36852 ft 508 kts 24°
2026-05-07 00:33 38.58397 -76.80669 36864 ft 507 kts 24°
2026-05-07 00:34 38.64022 -76.75212 36872 ft 508 kts 24°
2026-05-07 00:34 38.69674 -76.69722 36254 ft 514 kts 24°
2026-05-07 00:35 38.72509 -76.66956 35733 ft 511 kts 25°
2026-05-07 00:35 38.75335 -76.64198 35165 ft 512 kts 25°
2026-05-07 00:35 38.78159 -76.61438 34734 ft 508 kts 25°
2026-05-07 00:35 38.80929 -76.58730 34319 ft 506 kts 25°
2026-05-07 00:36 38.83714 -76.56006 33879 ft 504 kts 26°
2026-05-07 00:36 38.86499 -76.53281 33375 ft 501 kts 26°
2026-05-07 00:36 38.89260 -76.50575 32953 ft 498 kts 26°
2026-05-07 00:36 38.92005 -76.47882 32517 ft 494 kts 26°
2026-05-07 00:37 38.94724 -76.45212 32108 ft 490 kts 26°
2026-05-07 00:37 38.97425 -76.42558 31697 ft 487 kts 26°
2026-05-07 00:37 39.00104 -76.39924 31296 ft 484 kts 26°
2026-05-07 00:37 39.02776 -76.37291 30825 ft 485 kts 26°
2026-05-07 00:38 39.05361 -76.34514 30629 ft 486 kts 30°
2026-05-07 00:38 39.07920 -76.31553 30312 ft 504 kts 32°
2026-05-07 00:38 39.10534 -76.28448 29895 ft 517 kts 33°
2026-05-07 00:38 39.13160 -76.25298 29275 ft 514 kts 33°
2026-05-07 00:39 39.15759 -76.22191 28928 ft 506 kts 32°
2026-05-07 00:39 39.18347 -76.19133 28428 ft 501 kts 32°
2026-05-07 00:39 39.20905 -76.16134 27981 ft 496 kts 32°
2026-05-07 00:39 39.23463 -76.13151 27446 ft 494 kts 32°
2026-05-07 00:40 39.26020 -76.10167 26969 ft 500 kts 32°
2026-05-07 00:40 39.28628 -76.07122 26515 ft 509 kts 33°
2026-05-07 00:40 39.31259 -76.04038 26080 ft 512 kts 33°
2026-05-07 00:40 39.33880 -76.00949 25625 ft 508 kts 33°
2026-05-07 00:41 39.36474 -75.97882 25201 ft 504 kts 33°
2026-05-07 00:41 39.39056 -75.94828 24773 ft 503 kts 33°
2026-05-07 00:41 39.41681 -75.91742 24366 ft 519 kts 33°
2026-05-07 00:41 39.44360 -75.88588 23882 ft 520 kts 34°
2026-05-07 00:42 39.47019 -75.85439 23426 ft 517 kts 34°
2026-05-07 00:42 39.49653 -75.82310 22911 ft 512 kts 34°
2026-05-07 00:42 39.52262 -75.79208 22445 ft 506 kts 35°
2026-05-07 00:42 39.54841 -75.76144 21998 ft 500 kts 35°
2026-05-07 00:43 39.57390 -75.73113 21583 ft 494 kts 35°
2026-05-07 00:43 39.59910 -75.70120 21176 ft 490 kts 35°
2026-05-07 00:43 39.61571 -75.68145 20898 ft 487 kts 36°
2026-05-07 00:43 39.64062 -75.65183 20479 ft 484 kts 36°
2026-05-07 00:44 39.66532 -75.62239 20067 ft 481 kts 36°
2026-05-07 00:44 39.68989 -75.59306 19635 ft 478 kts 37°
2026-05-07 00:44 39.71424 -75.56383 19154 ft 477 kts 37°
2026-05-07 00:44 39.73854 -75.53456 18669 ft 473 kts 37°
2026-05-07 00:45 39.76250 -75.50563 18199 ft 466 kts 38°
2026-05-07 00:45 39.78604 -75.47716 17663 ft 459 kts 38°
2026-05-07 00:45 39.80920 -75.44915 17299 ft 451 kts 38°
2026-05-07 00:45 39.83219 -75.42137 16840 ft 451 kts 38°
2026-05-07 00:46 39.85511 -75.39367 16395 ft 449 kts 38°
2026-05-07 00:46 39.87797 -75.36601 15946 ft 448 kts 38°
2026-05-07 00:46 39.90072 -75.33845 15512 ft 443 kts 38°
2026-05-07 00:46 39.92309 -75.31128 15078 ft 436 kts 39°
2026-05-07 00:47 39.94512 -75.28453 14648 ft 430 kts 39°
2026-05-07 00:47 39.96684 -75.25812 14251 ft 424 kts 39°
2026-05-07 00:47 39.98829 -75.23203 13808 ft 420 kts 39°
2026-05-07 00:47 40.00956 -75.20615 13344 ft 415 kts 39°
2026-05-07 00:48 40.03052 -75.18059 12903 ft 411 kts 39°
2026-05-07 00:48 40.05129 -75.15525 12483 ft 406 kts 39°
2026-05-07 00:48 40.07175 -75.13026 12071 ft 401 kts 39°
2026-05-07 00:48 40.09198 -75.10556 11670 ft 396 kts 39°
2026-05-07 00:49 40.11200 -75.08108 11271 ft 390 kts 39°
2026-05-07 00:49 40.13149 -75.05720 10890 ft 380 kts 39°
2026-05-07 00:49 40.15054 -75.03384 10539 ft 369 kts 39°
2026-05-07 00:49 40.16898 -75.01123 10207 ft 358 kts 39°
2026-05-07 00:50 40.18678 -74.98935 10070 ft 340 kts 38°
2026-05-07 00:50 40.20362 -74.96865 9864 ft 330 kts 38°
2026-05-07 00:50 40.22025 -74.94825 9707 ft 319 kts 38°
2026-05-07 00:50 40.23664 -74.92816 9043 ft 324 kts 38°
2026-05-07 00:51 40.25292 -74.90813 8673 ft 319 kts 39°
2026-05-07 00:51 40.26831 -74.88754 8356 ft 313 kts 42°
2026-05-07 00:51 40.28301 -74.86673 8079 ft 310 kts 43°
2026-05-07 00:51 40.29748 -74.84601 8037 ft 310 kts 44°
2026-05-07 00:52 40.31201 -74.82535 7996 ft 305 kts 42°
2026-05-07 00:52 40.32604 -74.80565 7993 ft 295 kts 42°
2026-05-07 00:52 40.34020 -74.78585 8004 ft 296 kts 43°
2026-05-07 00:52 40.35431 -74.76601 8027 ft 307 kts 43°
2026-05-07 00:53 40.36905 -74.74528 8012 ft 313 kts 43°
2026-05-07 00:53 40.38383 -74.72442 7946 ft 311 kts 43°
2026-05-07 00:53 40.39842 -74.70383 7768 ft 307 kts 43°
2026-05-07 00:53 40.41294 -74.68344 7498 ft 305 kts 40°
2026-05-07 00:54 40.42998 -74.66787 7148 ft 294 kts 14°
2026-05-07 00:54 40.44913 -74.65944 6904 ft 288 kts
2026-05-07 00:54 40.46822 -74.65223 6672 ft 284 kts
2026-05-07 00:54 40.48721 -74.64524 6394 ft 284 kts
2026-05-07 00:55 40.50625 -74.63835 6109 ft 283 kts
2026-05-07 00:55 40.52517 -74.63158 6019 ft 284 kts
2026-05-07 00:55 40.54429 -74.62481 5982 ft 285 kts
2026-05-07 00:55 40.56340 -74.61803 5994 ft 286 kts
2026-05-07 00:56 40.58273 -74.61118 5992 ft 290 kts
2026-05-07 00:56 40.60236 -74.60431 5991 ft 294 kts
2026-05-07 00:56 40.62212 -74.59742 5974 ft 292 kts
2026-05-07 00:56 40.64158 -74.59062 5961 ft 287 kts
2026-05-07 00:57 40.66072 -74.58389 5976 ft 283 kts
2026-05-07 00:57 40.67985 -74.57710 5985 ft 287 kts
2026-05-07 00:57 40.69927 -74.57022 5987 ft 291 kts
2026-05-07 00:57 40.71877 -74.56337 5971 ft 289 kts
2026-05-07 00:58 40.73822 -74.55658 6005 ft 288 kts
2026-05-07 00:58 40.75761 -74.55004 5993 ft 288 kts
2026-05-07 00:58 40.77701 -74.54335 5990 ft 290 kts 10°
2026-05-07 00:58 40.79538 -74.53154 5959 ft 297 kts 27°
2026-05-07 00:59 40.82973 -74.50219 5458 ft 293 kts 27°
2026-05-07 00:59 40.84676 -74.48776 5212 ft 290 kts 28°
2026-05-07 00:59 40.86369 -74.47350 5067 ft 288 kts 27°
2026-05-07 01:00 40.88068 -74.45911 5031 ft 292 kts 28°
2026-05-07 01:00 40.89800 -74.44450 5029 ft 290 kts 27°
2026-05-07 01:00 40.91469 -74.43037 5014 ft 287 kts 27°
2026-05-07 01:00 40.93149 -74.41617 5017 ft 287 kts 28°
2026-05-07 01:01 40.94830 -74.40207 5013 ft 285 kts 27°
2026-05-07 01:01 40.96522 -74.38791 5010 ft 283 kts 28°
2026-05-07 01:01 40.98165 -74.37425 5005 ft 282 kts 27°
2026-05-07 01:01 40.99825 -74.36045 5003 ft 282 kts 27°
2026-05-07 01:02 41.01493 -74.34646 5004 ft 286 kts 27°
2026-05-07 01:02 41.03191 -74.33240 5019 ft 289 kts 27°
2026-05-07 01:02 41.04883 -74.31824 5006 ft 288 kts 28°
2026-05-07 01:02 41.06587 -74.30392 5019 ft 292 kts 28°
2026-05-07 01:03 41.08184 -74.28708 4981 ft 297 kts 48°
2026-05-07 01:03 41.09140 -74.26307 4905 ft 295 kts 76°
2026-05-07 01:03 41.09239 -74.23626 4645 ft 291 kts 104°
2026-05-07 01:03 41.08602 -74.21113 4412 ft 287 kts 116°
2026-05-07 01:04 41.07730 -74.18752 4136 ft 284 kts 130°
2026-05-07 01:04 41.06373 -74.16952 4029 ft 269 kts 146°
2026-05-07 01:04 41.04947 -74.15434 3988 ft 257 kts 147°
2026-05-07 01:04 41.03589 -74.13998 4012 ft 240 kts 147°
2026-05-07 01:05 41.02268 -74.12716 3995 ft 231 kts 156°
2026-05-07 01:05 41.00876 -74.11709 3803 ft 227 kts 158°
2026-05-07 01:05 40.99482 -74.10702 3330 ft 231 kts 157°
2026-05-07 01:05 40.98071 -74.09684 3126 ft 231 kts 157°
2026-05-07 01:06 40.96656 -74.08675 3030 ft 231 kts 157°
2026-05-07 01:06 40.95246 -74.07678 3010 ft 230 kts 157°
2026-05-07 01:06 40.93827 -74.06674 3011 ft 232 kts 158°
2026-05-07 01:06 40.92411 -74.05664 2992 ft 230 kts 158°
2026-05-07 01:07 40.91013 -74.04657 2983 ft 227 kts 157°
2026-05-07 01:07 40.89627 -74.03670 2991 ft 226 kts 157°
2026-05-07 01:07 40.88224 -74.02739 2988 ft 224 kts 167°
2026-05-07 01:07 40.86733 -74.02624 2971 ft 210 kts 201°
2026-05-07 01:08 40.85554 -74.03576 2813 ft 195 kts 232°
2026-05-07 01:08 40.84716 -74.04962 2509 ft 191 kts 237°
2026-05-07 01:08 40.83928 -74.06349 2528 ft 190 kts 237°
2026-05-07 01:08 40.83006 -74.07607 2497 ft 193 kts 216°
2026-05-07 01:09 40.81835 -74.08371 2501 ft 182 kts 213°
2026-05-07 01:09 40.80736 -74.09125 2355 ft 176 kts 214°
2026-05-07 01:09 40.79649 -74.09838 2118 ft 171 kts 213°
2026-05-07 01:09 40.78586 -74.10520 1906 ft 170 kts 212°
2026-05-07 01:10 40.77543 -74.11184 1666 ft 160 kts 211°
2026-05-07 01:10 40.76611 -74.11774 1477 ft 137 kts 211°
2026-05-07 01:10 40.75771 -74.12317 1291 ft 136 kts 212°
2026-05-07 01:10 40.74934 -74.12852 1117 ft 135 kts 211°
2026-05-07 01:11 40.74081 -74.13385 975 ft 138 kts 211°
2026-05-07 01:11 40.73234 -74.13936 788 ft 133 kts 211°
2026-05-07 01:11 40.72402 -74.14473 607 ft 133 kts 206°
2026-05-07 01:11 40.71546 -74.15016 414 ft 137 kts 205°
2026-05-07 01:12 40.70685 -74.15563 247 ft 138 kts 206°
2026-05-07 01:12 40.69821 -74.16116 56 ft 136 kts 204°
2026-05-07 01:12 40.69040 -74.16610 23 ft 111 kts 206°
2026-05-07 01:12 40.68484 -74.16965 20 ft 49 kts 206°
2026-05-07 01:13 40.68278 -74.17161 21 ft 31 kts 228°
2026-05-07 01:13 40.68205 -74.17293 21 ft 11 kts 241°
2026-05-07 01:13 40.68192 -74.17346 21 ft 0 kts 252°
2026-05-07 01:15 40.68192 -74.17347 21 ft 0 kts 252°
2026-05-07 01:15 40.68176 -74.17372 21 ft 7 kts 221°
2026-05-07 01:15 40.68142 -74.17418 20 ft 0 kts 257°
2026-05-07 01:19 40.68149 -74.17456 20 ft 10 kts 292°
2026-05-07 01:19 40.68189 -74.17566 20 ft 14 kts 294°
2026-05-07 01:19 40.68242 -74.17664 21 ft 13 kts 317°
2026-05-07 01:19 40.68289 -74.17728 22 ft 6 kts 281°
2026-05-07 01:20 40.68258 -74.17769 21 ft 8 kts 207°
2026-05-07 01:20 40.68192 -74.17814 21 ft 10 kts 224°
2026-05-07 01:20 40.68203 -74.17907 21 ft 13 kts 295°
2026-05-07 01:20 40.68235 -74.18044 21 ft 17 kts 275°
2026-05-07 01:21 40.68233 -74.18194 21 ft 16 kts 267°
2026-05-07 01:21 40.68240 -74.18341 21 ft 17 kts 275°
2026-05-07 01:21 40.68250 -74.18507 21 ft 18 kts 274°
2026-05-07 01:21 40.68235 -74.18631 21 ft 13 kts 272°
2026-05-07 01:22 40.68250 -74.18726 23 ft 1 kts 282°